Location: Casteau
(50.5142°N, 4.0161°E)
Time: 23:17:07
(UTC+00:00)

Transit 2A - Pass Details

Date: 29 July 2021
Orbit: 594 x 964 km, 66.7° (Epoch: 26 September)

Event Time Altitude Azimuth Distance (km) Brightness Sun altitude
Rises 12:09:17 0° 319° (NW) 3,064 8.9 57.9°
Reaches altitude 10° 12:12:26 10° 341° (NNW) 2,219 8.2 57.8°
Maximum altitude 12:15:34 16° 20° (NNE) 1,898 7.9 57.7°
Drops below altitude 10° 12:18:54 10° 58° (ENE) 2,371 8.4 57.6°
Sets 12:22:25 0° 79° (E) 3,384 9.2 57.5°
